Flag for United Kingdom Weather past 2 weeks in Plymouth, England, United Kingdom

Now
50 °F

Scattered clouds.


Feels Like: 46 °F
Forecast: N/A
Wind: 12 mph from Northwest

Location: Exeter Airport

Current Time: Mar 5, 2015 at 4:34:19 PM

Latest Report: Mar 5, 2015 at 4:20 PM


Visibility: N/A

Pressure: 30.69 "Hg

Humidity: 62%

Dew point: 37 °F

Location of PlymouthLocation

Historic Weather in Plymouth — Graph

°F

Plymouth temperature yesterday

Maximum temperature yesterday: 48 °F (at 1:20 PM)
Minimum temperature yesterday: 34 °F (at 11:20 PM)
Average temperature yesterday: 42 °F

Past Weeks' High & Low Weather Summary

 TemperatureHumidityPressure
High54 °F (Feb 25, 12:20 PM)100% (Feb 20, 7:50 AM)30.74 "Hg (Feb 20, 7:50 AM)
Low27 °F (Mar 5, 6:50 AM)50% (Feb 27, 1:20 PM)29.30 "Hg (Feb 23, 1:20 PM)
Average44 °F80%29.93 "Hg
* Reported Feb 18 3:20 PM — Mar 5 3:20 PM, Plymouth, Weather by CustomWeather, © 2015

Note: Actual official high and low records may vary slightly from our data, if they occured in-between our weather recording intervals... More about our weather records

Advertising

Plymouth weather history for previous 24 hours

 ConditionsComfort  
Time TempWeatherWind HumidityBarometerVisibility
3:20 PM
Thu, Mar 5
50 °FScattered clouds.12 mph67%30.69 "HgN/A
2:50 PM52 °FScattered clouds.10 mph62%30.69 "HgN/A
2:20 PM54 °FScattered clouds.10 mph54%30.69 "HgN/A
1:50 PM52 °FScattered clouds.12 mph58%30.69 "HgN/A
1:20 PM54 °FScattered clouds.9 mph54%30.69 "HgN/A
12:50 PM52 °FScattered clouds.10 mph62%30.72 "HgN/A
12:20 PM50 °FPassing clouds.12 mph62%30.72 "HgN/A
11:50 AM50 °FPassing clouds.12 mph62%30.72 "HgN/A
11:20 AM50 °FPassing clouds.7 mph71%30.72 "HgN/A
10:50 AM46 °FPassing clouds.5 mph82%30.72 "HgN/A
10:20 AM43 °FPassing clouds.2 mph87%30.74 "HgN/A
9:50 AM39 °FPassing clouds.1 mph93%30.74 "HgN/A
9:20 AM36 °FPassing clouds.No wind100%30.74 "HgN/A
8:50 AM34 °FPassing clouds.3 mph93%30.74 "HgN/A
8:20 AM30 °FPassing clouds.1 mph100%30.74 "HgN/A
7:50 AM28 °FPassing clouds.3 mph100%30.74 "HgN/A
7:20 AM28 °FPassing clouds.2 mph100%30.74 "HgN/A
6:50 AM27 °FPassing clouds.1 mph100%30.72 "HgN/A
6:20 AM28 °FPassing clouds.2 mph93%30.72 "Hg5 mi
1:20 AM32 °FClear.No wind93%30.74 "Hg10 mi
12:50 AM32 °FClear.1 mph93%30.74 "Hg10 mi
12:20 AM32 °FClear.2 mph93%30.72 "Hg10 mi
11:50 PM
Wed, Mar 4
36 °FClear.3 mph93%30.72 "Hg10 mi
11:20 PM34 °FClear.2 mph93%30.72 "Hg10 mi
10:50 PM36 °FClear.No wind93%30.72 "Hg10 mi
10:20 PM36 °FClear.3 mph87%30.72 "Hg10 mi
9:20 PM37 °FClear.5 mph87%30.69 "Hg10 mi
8:50 PM39 °FClear.8 mph81%30.69 "Hg10 mi
8:20 PM39 °FClear.5 mph81%30.69 "Hg10 mi
7:50 PM39 °FPassing clouds.6 mph81%30.69 "HgN/A
7:20 PM41 °FClear.10 mph76%30.66 "Hg10 mi
6:50 PM41 °FPassing clouds.7 mph76%30.66 "HgN/A
6:20 PM43 °FClear.8 mph71%30.63 "Hg10 mi
5:50 PM45 °FPassing clouds.9 mph61%30.63 "HgN/A
5:20 PM45 °FPassing clouds.8 mph66%30.63 "HgN/A
4:50 PM45 °FPassing clouds.13 mph61%30.60 "HgN/A
4:20 PM48 °FPassing clouds.14 mph54%30.60 "HgN/A
Weather by CustomWeather, © 2015

See weather overviewHow to use our weather pages